Location: Brookfield Center
(41.2406°N, 80.5579°W)
Time: 11:30:49
(UTC+00:00)

Cosmos 773 Rocket - Pass Details

Date: 18 January 2020
Orbit: 746 x 776 km, 74.1° (Epoch: 18 February)

Event Time Altitude Azimuth Distance (km) Brightness Sun altitude
Rises 11:06:59 0° 212° (SSW) 3,241 7.0 -18.1°
Reaches altitude 10° 11:09:26 10° 218° (SW) 2,319 6.2 -17.6°
Maximum altitude 11:14:33 50° 294° (WNW) 983 4.1 -16.7°
Drops below altitude 10° 11:19:41 10° 9° (N) 2,328 6.5 -15.7°
Sets 11:22:09 0° 15° (NNE) 3,257 7.3 -15.3°
